Weather History for KSWF - April, 2013

Change the Weather History Date:

Friday, April 26, 2013

  Actual Average Record
Temperature  
Mean Temperature 50 °F -  
Max Temperature 62 °F 61 °F 82 °F (2011)
Min Temperature 39 °F 39 °F 26 °F (1988)
Degree Days  
Heating Degree Days 14    
Moisture  
Dew Point 31 °F    
Average Humidity 48    
Maximum Humidity 75    
Minimum Humidity 27    
Precipitation  
Precipitation 0.00 in - - ()
Sea Level Pressure  
Sea Level Pressure 30.37 in    
Wind  
Wind Speed 4 mph (NNE)    
Max Wind Speed 14 mph    
Max Gust Speed 17 mph    
Visibility 16 miles    
Events      
Averages and records for this station are not official NWS values.
T = Trace of Precipitation, MM = Missing Value Source: NWS Daily Summary

Daily Weather History Graph

Daily Weather History Graph

Search for Another Location

Airport or City:

Trip Planner

Search our weather history database for the weather conditions in past years. The results will help you decide how hot, cold, wet, or windy it might be!

Date:

Astronomy

Apr. 26, 2013 Rise Set
Actual Time 5:59 AM EDT 7:49 PM EDT
Civil Twilight 5:30 AM EDT 8:18 PM EDT
Nautical Twilight 4:54 AM EDT 8:55 PM EDT
Astronomical Twilight 4:15 AM EDT 9:34 PM EDT
Moon 9:09 PM EDT (4/26) 6:24 AM EDT (4/26)
Length of Visible Light 14h 48m
Length of Day
13h 49m
Full, 99% of the Moon is Illuminated
Apr 26
Full
May 2
Last Quarter
May 9
New
May 18
First Quarter
May 25
Full

Hourly Weather History & Observations

Time (EDT) Temp. Windchill Dew Point Humidity Pressure Visibility Wind Dir Wind Speed Gust Speed Precip Events Conditions
12:45 AM 46.4 °F - 28.4 °F 50% 30.27 in 10.0 mi Calm Calm - N/A   Clear
1:45 AM 42.8 °F - 30.2 °F 61% 30.27 in 10.0 mi Calm Calm - N/A   Clear
2:45 AM 39.2 °F - 32.0 °F 75% 30.28 in 10.0 mi Calm Calm - N/A   Clear
4:45 AM 39.2 °F - 32.0 °F 75% 30.31 in 10.0 mi Calm Calm - N/A   Clear
6:45 AM 39.2 °F 32.0 °F 32.0 °F 75% 30.36 in 20.0 mi West 11.5 mph - N/A   Clear
8:45 AM 50.0 °F - 33.8 °F 54% 30.40 in 20.0 mi North 11.5 mph 17.3 mph N/A   Clear
9:45 AM 51.8 °F - 32.0 °F 47% 30.41 in 20.0 mi ENE 8.1 mph - N/A   Clear
10:45 AM 53.6 °F - 33.8 °F 47% 30.41 in 20.0 mi Variable 5.8 mph - N/A   Clear
11:45 AM 53.6 °F - 33.8 °F 47% 30.40 in 20.0 mi Variable 5.8 mph - N/A   Partly Cloudy
12:45 PM 57.2 °F - 33.8 °F 41% 30.39 in 20.0 mi Variable 5.8 mph - N/A   Partly Cloudy
1:55 PM 59.0 °F - 32.0 °F 36% 30.38 in 20.0 mi WSW 4.6 mph - N/A   Partly Cloudy
3:45 PM 62.6 °F - 28.4 °F 27% 30.35 in 20.0 mi NNW 4.6 mph - N/A   Partly Cloudy
4:45 PM 60.8 °F - 32.0 °F 34% 30.33 in 20.0 mi Variable 4.6 mph - N/A   Partly Cloudy
5:45 PM 60.8 °F - 33.8 °F 36% 30.36 in 20.0 mi Variable 5.8 mph - N/A   Partly Cloudy
6:45 PM 59.0 °F - 32.0 °F 36% 30.36 in 20.0 mi ENE 11.5 mph - N/A   Partly Cloudy
7:45 PM 57.2 °F - 30.2 °F 36% 30.38 in 20.0 mi NE 13.8 mph - N/A   Partly Cloudy
8:45 PM 53.6 °F - 30.2 °F 41% 30.41 in 10.0 mi NE 8.1 mph - N/A   Partly Cloudy
9:45 PM 51.8 °F - 30.2 °F 44% 30.43 in 10.0 mi NE 6.9 mph - N/A   Partly Cloudy
10:44 PM 50.0 °F - 28.4 °F 43% 30.43 in 10.0 mi ENE 9.2 mph - N/A   Partly Cloudy
11:45 PM 48.2 °F - 28.4 °F 46% 30.44 in 10.0 mi ENE 6.9 mph - N/A   Scattered Clouds